Weather History for KRNP - March, 2013

Change the Weather History Date:

Tuesday, March 5, 2013

  Actual Average (KFNT) Record (KFNT)
Temperature  
Mean Temperature 25 °F 30 °F  
Max Temperature 35 °F 39 °F 66 °F (2004)
Min Temperature 15 °F 21 °F -10 °F (1948)
Degree Days  
Heating Degree Days 40 35  
Month to date heating degree days 178  
Since 1 July heating degree days 5266  
Cooling Degree Days 0 0  
Month to date cooling degree days 0  
Year to date cooling degree days 0  
Moisture  
Dew Point 19 °F    
Average Humidity 76    
Maximum Humidity 90    
Minimum Humidity 55    
Precipitation  
Precipitation 0.00 in 0.06 in 0.71 in (2011)
Month to date precipitation 0.28  
Year to date precipitation 3.39  
Snow  
Snow 0.00 in 0.20 in 6.10 in (1999)
Month to date snowfall 1.4  
Since 1 July snowfall 40.0  
Snow Depth -    
Sea Level Pressure  
Sea Level Pressure 29.98 in    
Wind  
Wind Speed 6 mph (ENE)    
Max Wind Speed 14 mph    
Max Gust Speed 23 mph    
Visibility 10 miles    
Events      
T = Trace of Precipitation, MM = Missing Value Source: NWS Daily Summary

Daily Weather History Graph

Daily Weather History Graph

Search for Another Location

Airport or City:

Trip Planner

Search our weather history database for the weather conditions in past years. The results will help you decide how hot, cold, wet, or windy it might be!

Date:

Astronomy

Mar. 05, 2013 Rise Set
Actual Time 7:05 AM EST 6:31 PM EST
Civil Twilight 6:37 AM EST 6:59 PM EST
Nautical Twilight 6:04 AM EST 7:32 PM EST
Astronomical Twilight 5:31 AM EST 8:05 PM EST
Moon 2:23 AM EST (3/5) 12:02 PM EST (3/5)
Length of Visible Light 12h 22m
Length of Day
11h 25m
Last Quarter, 41% of the Moon is Illuminated
Mar 5
Last Quarter
Mar 11
New
Mar 19
First Quarter
Mar 27
Full
Apr 3
Last Quarter

Hourly Weather History & Observations

Time (EST) Temp. Windchill Dew Point Humidity Pressure Visibility Wind Dir Wind Speed Gust Speed Precip Events Conditions
12:15 AM 16.7 °F - 13.3 °F 86% 30.11 in 10.0 mi Calm Calm - N/A   Clear
12:35 AM 18.1 °F - 15.3 °F 88% 30.12 in 10.0 mi Calm Calm - N/A   Clear
12:54 AM 17.6 °F - 14.7 °F 88% 30.12 in 10.0 mi Calm Calm - N/A   Clear
1:34 AM 16.0 °F - 13.3 °F 89% 30.12 in 7.0 mi Calm Calm - N/A   Clear
1:55 AM 16.3 °F - 14.0 °F 90% 30.12 in 7.0 mi Calm Calm - N/A   Clear
2:15 AM 16.7 °F - 14.2 °F 90% 30.12 in 10.0 mi Calm Calm - N/A   Clear
2:34 AM 16.2 °F 10.6 °F 13.6 °F 90% 30.11 in 10.0 mi ENE 3.5 mph - N/A   Clear
2:55 AM 17.4 °F - 14.7 °F 89% 30.10 in 10.0 mi Calm Calm - N/A   Clear
3:14 AM 16.0 °F - 13.1 °F 88% 30.10 in 7.0 mi Calm Calm - N/A   Clear
3:35 AM 16.5 °F - 13.6 °F 88% 30.09 in 10.0 mi Calm Calm - N/A   Clear
3:55 AM 15.6 °F - 12.9 °F 89% 30.08 in 10.0 mi Calm Calm - N/A   Clear
4:14 AM 15.6 °F - 13.1 °F 90% 30.08 in 10.0 mi Calm Calm - N/A   Clear
4:35 AM 16.0 °F - 12.9 °F 88% 30.07 in 10.0 mi Calm Calm - N/A   Clear
4:55 AM 15.4 °F - 12.4 °F 88% 30.07 in 10.0 mi Calm Calm - N/A   Clear
5:14 AM 15.8 °F - 12.9 °F 88% 30.07 in 10.0 mi Calm Calm - N/A   Clear
6:15 AM 20.3 °F 13.8 °F 15.8 °F 83% 30.07 in 10.0 mi East 4.6 mph - N/A   Overcast
6:35 AM 21.6 °F 14.0 °F 16.7 °F 82% 30.07 in 10.0 mi ENE 5.8 mph - N/A   Overcast
7:35 AM 23.5 °F 13.7 °F 19.2 °F 84% 30.06 in 10.0 mi East 9.2 mph 16.1 mph N/A   Overcast
7:54 AM 24.3 °F 16.3 °F 19.4 °F 82% 30.06 in 10.0 mi East 6.9 mph - N/A   Overcast
8:15 AM 24.8 °F 15.3 °F 19.9 °F 82% 30.05 in 10.0 mi East 9.2 mph - N/A   Overcast
8:35 AM 25.3 °F 14.1 °F 20.1 °F 81% 30.06 in 10.0 mi East 12.7 mph - N/A   Overcast
8:54 AM 25.9 °F 16.0 °F 20.3 °F 79% 30.05 in 10.0 mi East 10.4 mph - N/A   Overcast
9:15 AM 26.6 °F 18.2 °F 20.3 °F 77% 30.05 in 10.0 mi East 8.1 mph - N/A   Overcast
9:35 AM 27.3 °F 16.6 °F 20.3 °F 75% 30.04 in 10.0 mi East 12.7 mph - N/A   Overcast
9:54 AM 27.9 °F 17.3 °F 20.3 °F 73% 30.04 in 10.0 mi East 12.7 mph 16.1 mph N/A   Overcast
10:15 AM 28.2 °F 17.2 °F 20.1 °F 72% 30.03 in 10.0 mi ENE 13.8 mph - N/A   Overcast
10:35 AM 29.1 °F 18.9 °F 20.7 °F 71% 30.03 in 10.0 mi East 12.7 mph - N/A   Overcast
10:55 AM 29.3 °F 19.6 °F 20.5 °F 70% 30.02 in 10.0 mi East 11.5 mph 18.4 mph N/A   Overcast
11:15 AM 29.1 °F 20.0 °F 20.1 °F 69% 30.02 in 10.0 mi East 10.4 mph - N/A   Mostly Cloudy
11:34 AM 31.6 °F 22.1 °F 20.8 °F 64% 30.01 in 10.0 mi East 12.7 mph - N/A   Mostly Cloudy
11:55 AM 31.8 °F 22.8 °F 20.3 °F 62% 30.00 in 10.0 mi East 11.5 mph 21.9 mph N/A   Scattered Clouds
12:15 PM 32.0 °F 22.1 °F 21.0 °F 64% 29.99 in 10.0 mi ENE 13.8 mph - N/A   Scattered Clouds
12:34 PM 32.0 °F 23.0 °F 20.5 °F 63% 29.98 in 10.0 mi ENE 11.5 mph - N/A   Scattered Clouds
1:15 PM 32.7 °F 23.9 °F 20.8 °F 62% 29.97 in 10.0 mi NE 11.5 mph - N/A   Scattered Clouds
1:34 PM 33.3 °F 25.7 °F 20.7 °F 60% 29.95 in 10.0 mi ENE 9.2 mph - N/A   Scattered Clouds
1:55 PM 33.8 °F 25.3 °F 20.3 °F 58% 29.93 in 10.0 mi ENE 11.5 mph 18.4 mph N/A   Clear
2:15 PM 34.0 °F 26.0 °F 20.8 °F 59% 29.91 in 10.0 mi ENE 10.4 mph 18.4 mph N/A   Clear
2:35 PM 34.7 °F 27.5 °F 20.7 °F 57% 29.91 in 10.0 mi ENE 9.2 mph 20.7 mph N/A   Clear
2:55 PM 35.2 °F 27.1 °F 20.7 °F 55% 29.90 in 10.0 mi ENE 11.5 mph 19.6 mph N/A   Clear
3:14 PM 34.9 °F 26.6 °F 21.0 °F 57% 29.89 in 10.0 mi ENE 11.5 mph 18.4 mph N/A   Clear
3:35 PM 34.9 °F 26.6 °F 22.1 °F 60% 29.89 in 10.0 mi NE 11.5 mph - N/A   Scattered Clouds
3:54 PM 34.5 °F 25.7 °F 22.6 °F 62% 29.88 in 10.0 mi NE 12.7 mph 19.6 mph N/A   Mostly Cloudy
4:15 PM 33.4 °F 23.9 °F 23.0 °F 66% 29.87 in 10.0 mi NE 13.8 mph 20.7 mph N/A   Scattered Clouds
4:35 PM 32.2 °F 22.3 °F 21.9 °F 66% 29.87 in 10.0 mi NE 13.8 mph 19.6 mph N/A   Scattered Clouds
4:54 PM 32.2 °F 23.8 °F 21.2 °F 64% 29.87 in 10.0 mi NE 10.4 mph - N/A   Scattered Clouds
5:15 PM 32.0 °F 24.2 °F 21.2 °F 64% 29.86 in 10.0 mi NE 9.2 mph 18.4 mph N/A   Scattered Clouds
5:35 PM 31.1 °F 22.4 °F 21.6 °F 68% 29.87 in 10.0 mi NE 10.4 mph - N/A   Clear
5:54 PM 30.6 °F 21.2 °F 21.2 °F 68% 29.87 in 10.0 mi NE 11.5 mph 19.6 mph N/A   Scattered Clouds
6:15 PM 29.8 °F 21.5 °F 21.2 °F 70% 29.87 in 10.0 mi NE 9.2 mph - N/A   Scattered Clouds
6:35 PM 29.3 °F 19.6 °F 20.8 °F 71% 29.89 in 10.0 mi NE 11.5 mph 16.1 mph N/A   Clear
6:54 PM 29.1 °F 20.0 °F 20.8 °F 71% 29.90 in 10.0 mi NE 10.4 mph 16.1 mph N/A   Mostly Cloudy
7:15 PM 28.8 °F 20.9 °F 21.0 °F 73% 29.89 in 10.0 mi NE 8.1 mph 17.3 mph N/A   Overcast
7:34 PM 28.4 °F 19.1 °F 21.2 °F 74% 29.89 in 10.0 mi NE 10.4 mph - N/A   Mostly Cloudy
7:55 PM 28.2 °F 18.9 °F 21.2 °F 75% 29.90 in 10.0 mi NE 10.4 mph - N/A   Overcast
8:15 PM 28.0 °F 20.0 °F 21.2 °F 76% 29.90 in 10.0 mi NE 8.1 mph 17.3 mph N/A   Overcast
8:34 PM 28.0 °F 18.6 °F 21.7 °F 77% 29.90 in 10.0 mi NE 10.4 mph - N/A   Overcast
8:55 PM 27.9 °F 18.4 °F 22.1 °F 79% 29.89 in 10.0 mi NE 10.4 mph - N/A   Overcast
9:15 PM 27.5 °F 18.0 °F 21.6 °F 78% 29.89 in 10.0 mi NE 10.4 mph 23.0 mph N/A   Overcast
9:34 PM 27.5 °F 17.4 °F 22.1 °F 80% 29.89 in 10.0 mi NNE 11.5 mph 17.3 mph N/A   Overcast
9:55 PM 27.7 °F 17.1 °F 22.1 °F 80% 29.90 in 10.0 mi NNE 12.7 mph 17.3 mph N/A   Overcast
10:15 PM 28.0 °F 18.1 °F 22.6 °F 80% 29.89 in 10.0 mi NNE 11.5 mph - N/A   Overcast
10:34 PM 28.4 °F 18.5 °F 23.0 °F 80% 29.90 in 10.0 mi NNE 11.5 mph - N/A   Overcast
10:55 PM 28.4 °F 19.7 °F 23.2 °F 81% 29.90 in 10.0 mi NNE 9.2 mph - N/A   Overcast
11:15 PM 28.2 °F 19.5 °F 23.5 °F 83% 29.90 in 10.0 mi North 9.2 mph - N/A   Mostly Cloudy
11:35 PM 28.8 °F 19.5 °F 24.3 °F 83% 29.90 in 10.0 mi North 10.4 mph 16.1 mph N/A   Overcast
11:55 PM 28.8 °F 20.2 °F 24.6 °F 84% 29.90 in 10.0 mi North 9.2 mph - N/A   Overcast